Time,TemperatureF,DewpointF,PressureIn,WindDirection,WindDirectionDegrees,WindSpeedMPH,WindSpeedGustMPH,Humidity,HourlyPrecipIn,Conditions,Clouds,dailyrainin,SoftwareType,DateUTC
2013-02-04 00:00:00,61.9,40.9,30.12,SSW,202,0.0,0.0,46,0.00,CLR,,0.01,WeatherDisplay:10.37,2013-02-04 05:00:00,
2013-02-04 00:02:00,62.1,41.0,30.12,SSW,202,0.0,0.0,46,0.00,CLR,,0.00,WeatherDisplay:10.37,2013-02-04 05:02:00,
2013-02-04 00:03:00,62.1,41.0,30.12,SSW,202,0.0,0.0,46,0.00,CLR,,0.00,WeatherDisplay:10.37,2013-02-04 05:03:00,
2013-02-04 00:04:00,62.1,41.0,30.12,SSW,202,0.0,0.0,46,0.00,CLR,,0.00,WeatherDisplay:10.37,2013-02-04 05:04:00,
2013-02-04 00:09:00,61.9,41.4,30.12,SSW,202,0.0,0.0,47,0.00,CLR,,0.00,WeatherDisplay:10.37,2013-02-04 05:09:00,
2013-02-04 00:14:00,61.9,41.4,30.12,SSW,202,0.0,0.0,47,0.00,CLR,,0.00,WeatherDisplay:10.37,2013-02-04 05:14:00,
2013-02-04 00:19:00,61.9,42.0,30.12,West,270,0.0,0.0,48,0.00,CLR,,0.00,WeatherDisplay:10.37,2013-02-04 05:19:00,
2013-02-04 00:25:00,61.9,42.0,30.12,West,270,0.0,0.0,48,0.00,CLR,,0.00,WeatherDisplay:10.37,2013-02-04 05:25:00,
2013-02-04 00:30:00,61.9,41.4,30.12,West,270,0.0,0.0,47,0.00,CLR,,0.00,WeatherDisplay:10.37,2013-02-04 05:30:00,
2013-02-04 00:35:00,61.7,41.8,30.09,West,270,0.0,0.0,48,0.00,CLR,,0.00,WeatherDisplay:10.37,2013-02-04 05:35:00,
2013-02-04 00:40:00,61.7,41.8,30.09,NW,315,0.0,0.0,48,0.00,CLR,,0.00,WeatherDisplay:10.37,2013-02-04 05:40:00,
2013-02-04 00:45:00,61.7,41.3,30.09,NW,315,0.0,0.0,47,0.00,CLR,,0.00,WeatherDisplay:10.37,2013-02-04 05:45:00,
2013-02-04 00:50:00,61.7,41.8,30.09,NW,315,0.0,0.0,48,0.00,CLR,,0.00,WeatherDisplay:10.37,2013-02-04 05:50:00,
2013-02-04 00:55:00,61.2,41.3,30.09,West,270,4.6,4.6,48,0.00,CLR,,0.00,WeatherDisplay:10.37,2013-02-04 05:55:00,
2013-02-04 01:00:00,60.6,40.3,30.09,West,270,5.8,5.8,47,0.00,CLR,,0.00,WeatherDisplay:10.37,2013-02-04 06:00:00,
2013-02-04 01:06:00,60.6,40.3,30.12,WSW,248,3.6,3.6,47,0.00,CLR,,0.00,WeatherDisplay:10.37,2013-02-04 06:06:00,
2013-02-04 01:11:00,60.4,40.6,30.12,WNW,292,3.5,3.5,48,0.00,CLR,,0.00,WeatherDisplay:10.37,2013-02-04 06:11:00,
2013-02-04 01:16:00,60.3,40.5,30.09,SW,225,3.6,3.6,48,0.00,CLR,,0.00,WeatherDisplay:10.37,2013-02-04 06:16:00,
2013-02-04 01:21:00,60.1,41.4,30.09,West,270,4.9,4.9,50,0.00,CLR,,0.00,WeatherDisplay:10.37,2013-02-04 06:21:00,
2013-02-04 01:26:00,60.1,41.4,30.09,West,270,5.8,5.8,50,0.00,CLR,,0.00,WeatherDisplay:10.37,2013-02-04 06:26:00,
2013-02-04 01:31:00,60.1,41.9,30.09,West,270,5.8,5.8,51,0.00,CLR,,0.00,WeatherDisplay:10.37,2013-02-04 06:31:00,
2013-02-04 01:36:00,59.7,42.1,30.09,WNW,292,3.5,3.5,52,0.00,CLR,,0.00,WeatherDisplay:10.37,2013-02-04 06:36:00,
2013-02-04 01:41:00,59.5,42.4,30.09,West,270,4.6,4.6,53,0.00,CLR,,0.00,WeatherDisplay:10.37,2013-02-04 06:41:00,
2013-02-04 01:46:00,59.4,42.7,30.09,West,270,3.5,3.5,54,0.00,CLR,,0.00,WeatherDisplay:10.37,2013-02-04 06:46:00,
2013-02-04 01:51:00,59.2,43.0,30.09,West,270,4.6,4.6,55,0.00,CLR,,0.00,WeatherDisplay:10.37,2013-02-04 06:51:00,
2013-02-04 01:56:00,59.2,43.0,30.09,WSW,248,4.6,4.6,55,0.00,CLR,,0.00,WeatherDisplay:10.37,2013-02-04 06:56:00,
2013-02-04 02:02:00,59.0,43.3,30.09,WNW,292,4.6,4.6,56,0.00,CLR,,0.00,WeatherDisplay:10.37,2013-02-04 07:02:00,
2013-02-04 02:07:00,59.0,43.8,30.12,WNW,292,4.6,4.6,57,0.00,CLR,,0.00,WeatherDisplay:10.37,2013-02-04 07:07:00,
2013-02-04 02:12:00,58.8,44.1,30.12,West,270,5.8,5.8,58,0.00,CLR,,0.00,WeatherDisplay:10.37,2013-02-04 07:12:00,
2013-02-04 02:17:00,58.8,44.1,30.09,West,270,4.0,4.0,58,0.00,CLR,,0.00,WeatherDisplay:10.37,2013-02-04 07:17:00,
2013-02-04 02:22:00,58.6,44.8,30.09,West,270,5.8,5.8,60,0.00,CLR,,0.00,WeatherDisplay:10.37,2013-02-04 07:22:00,
2013-02-04 02:27:00,58.6,44.8,30.09,NW,315,5.8,5.8,60,0.00,CLR,,0.00,WeatherDisplay:10.37,2013-02-04 07:27:00,
2013-02-04 02:32:00,58.5,45.1,30.09,NW,315,6.4,6.4,61,0.00,CLR,,0.00,WeatherDisplay:10.37,2013-02-04 07:32:00,
2013-02-04 02:38:00,58.5,45.1,30.09,WNW,292,5.8,5.8,61,0.00,CLR,,0.00,WeatherDisplay:10.37,2013-02-04 07:38:00,
2013-02-04 02:43:00,58.5,45.5,30.09,WNW,292,8.1,8.1,62,0.00,CLR,,0.00,WeatherDisplay:10.37,2013-02-04 07:43:00,
2013-02-04 02:48:00,58.3,45.3,30.09,NW,315,5.8,5.8,62,0.00,CLR,,0.00,WeatherDisplay:10.37,2013-02-04 07:48:00,
2013-02-04 02:53:00,58.1,45.1,30.09,NW,315,5.9,5.9,62,0.00,CLR,,0.00,WeatherDisplay:10.37,2013-02-04 07:53:00,
2013-02-04 02:58:00,58.1,45.6,30.09,West,270,6.2,6.2,63,0.00,CLR,,0.00,WeatherDisplay:10.37,2013-02-04 07:58:00,
2013-02-04 03:04:00,57.9,45.4,30.09,West,270,6.9,6.9,63,0.00,CLR,,0.00,WeatherDisplay:10.37,2013-02-04 08:04:00,
2013-02-04 03:09:00,57.7,45.2,30.09,NW,315,5.8,5.8,63,0.00,CLR,,0.00,WeatherDisplay:10.37,2013-02-04 08:09:00,
2013-02-04 03:14:00,57.7,45.2,30.09,NW,315,5.8,6.0,63,0.00,CLR,,0.00,WeatherDisplay:10.37,2013-02-04 08:14:00,
2013-02-04 03:19:00,57.6,45.5,30.06,NW,315,8.1,8.1,64,0.00,CLR,,0.00,WeatherDisplay:10.37,2013-02-04 08:19:00,
2013-02-04 03:24:00,57.6,45.5,30.06,NW,315,7.6,7.6,64,0.00,CLR,,0.00,WeatherDisplay:10.37,2013-02-04 08:24:00,
2013-02-04 03:29:00,57.6,45.1,30.06,NW,315,5.8,5.8,63,0.00,CLR,,0.00,WeatherDisplay:10.37,2013-02-04 08:29:00,
2013-02-04 03:34:00,57.6,45.1,30.09,West,270,5.8,5.8,63,0.00,CLR,,0.00,WeatherDisplay:10.37,2013-02-04 08:34:00,
2013-02-04 03:39:00,57.6,45.1,30.09,NW,315,5.8,5.8,63,0.00,CLR,,0.00,WeatherDisplay:10.37,2013-02-04 08:39:00,
2013-02-04 03:44:00,57.4,44.5,30.09,NW,315,6.0,6.0,62,0.00,CLR,,0.00,WeatherDisplay:10.37,2013-02-04 08:44:00,
2013-02-04 03:49:00,57.4,44.0,30.09,WNW,292,8.1,8.1,61,0.00,CLR,,0.00,WeatherDisplay:10.37,2013-02-04 08:49:00,
2013-02-04 03:55:00,57.4,44.0,30.09,NW,315,6.2,6.2,61,0.00,CLR,,0.00,WeatherDisplay:10.37,2013-02-04 08:55:00,
2013-02-04 04:00:00,57.6,43.8,30.09,WNW,292,6.2,6.2,60,0.00,CLR,,0.00,WeatherDisplay:10.37,2013-02-04 09:00:00,
2013-02-04 04:05:00,57.4,43.6,30.09,NW,315,5.8,5.8,60,0.00,CLR,,0.00,WeatherDisplay:10.37,2013-02-04 09:05:00,
2013-02-04 04:10:00,57.4,43.2,30.09,WNW,292,5.8,5.8,59,0.00,CLR,,0.00,WeatherDisplay:10.37,2013-02-04 09:10:00,
2013-02-04 04:15:00,57.2,43.0,30.09,WNW,292,8.1,8.1,59,0.00,CLR,,0.00,WeatherDisplay:10.37,2013-02-04 09:15:00,
2013-02-04 04:20:00,57.2,42.5,30.12,NW,306,6.0,8.0,58,0.00,CLR,,0.00,WeatherDisplay:10.37,2013-02-04 09:20:00,
2013-02-04 04:25:00,57.0,42.4,30.12,West,270,6.0,6.0,58,0.00,CLR,,0.00,WeatherDisplay:10.37,2013-02-04 09:25:00,
2013-02-04 04:31:00,57.0,42.4,30.12,NW,315,6.4,6.4,58,0.00,CLR,,0.00,WeatherDisplay:10.37,2013-02-04 09:31:00,
2013-02-04 04:36:00,56.8,41.8,30.09,NW,315,7.4,7.4,57,0.00,CLR,,0.00,WeatherDisplay:10.37,2013-02-04 09:36:00,
2013-02-04 04:41:00,56.8,41.3,30.09,NW,315,5.8,5.8,56,0.00,CLR,,0.00,WeatherDisplay:10.37,2013-02-04 09:41:00,
2013-02-04 04:46:00,56.8,40.8,30.09,NW,315,5.9,5.9,55,0.00,CLR,,0.00,WeatherDisplay:10.37,2013-02-04 09:46:00,
2013-02-04 04:51:00,56.7,40.7,30.09,West,270,5.8,5.8,55,0.00,CLR,,0.00,WeatherDisplay:10.37,2013-02-04 09:51:00,
2013-02-04 04:56:00,56.7,39.7,30.09,NW,315,6.0,6.0,53,0.00,CLR,,0.00,WeatherDisplay:10.37,2013-02-04 09:56:00,
2013-02-04 05:01:00,56.7,39.2,30.09,WNW,292,6.9,6.9,52,0.00,CLR,,0.00,WeatherDisplay:10.37,2013-02-04 10:01:00,
2013-02-04 05:06:00,56.5,38.1,30.09,NW,315,7.8,7.8,50,0.00,CLR,,0.00,WeatherDisplay:10.37,2013-02-04 10:06:00,
2013-02-04 05:11:00,56.7,38.2,30.09,West,270,7.6,7.6,50,0.00,CLR,,0.00,WeatherDisplay:10.37,2013-02-04 10:11:00,
2013-02-04 05:16:00,56.5,37.5,30.09,North,0,5.8,5.8,49,0.00,CLR,,0.00,WeatherDisplay:10.37,2013-02-04 10:16:00,
2013-02-04 05:22:00,56.5,37.5,30.09,NNW,338,5.8,5.8,49,0.00,CLR,,0.00,WeatherDisplay:10.37,2013-02-04 10:22:00,
2013-02-04 05:27:00,56.3,36.8,30.09,West,270,6.9,6.9,48,0.00,CLR,,0.00,WeatherDisplay:10.37,2013-02-04 10:27:00,
2013-02-04 05:32:00,56.3,36.8,30.09,West,270,6.9,6.9,48,0.00,CLR,,0.00,WeatherDisplay:10.37,2013-02-04 10:32:00,
2013-02-04 05:37:00,56.3,36.8,30.09,NW,315,3.8,3.8,48,0.00,CLR,,0.00,WeatherDisplay:10.37,2013-02-04 10:37:00,
2013-02-04 05:42:00,56.1,36.1,30.09,NW,315,5.8,5.8,47,0.00,CLR,,0.00,WeatherDisplay:10.37,2013-02-04 10:42:00,
2013-02-04 05:47:00,55.9,36.0,30.12,NW,315,8.1,8.1,47,0.00,CLR,,0.00,WeatherDisplay:10.37,2013-02-04 10:47:00,
2013-02-04 05:52:00,55.9,36.0,30.12,NW,315,5.8,5.8,47,0.00,CLR,,0.00,WeatherDisplay:10.37,2013-02-04 10:52:00,
2013-02-04 05:57:00,55.9,36.0,30.12,NW,315,4.6,4.6,47,0.00,CLR,,0.00,WeatherDisplay:10.37,2013-02-04 10:57:00,
2013-02-04 06:02:00,55.8,35.8,30.12,West,270,5.4,5.4,47,0.00,CLR,,0.00,WeatherDisplay:10.37,2013-02-04 11:02:00,
2013-02-04 06:08:00,55.8,35.8,30.12,NW,315,4.6,4.6,47,0.00,CLR,,0.00,WeatherDisplay:10.37,2013-02-04 11:08:00,
2013-02-04 06:13:00,55.6,35.7,30.12,WSW,248,4.6,4.6,47,0.00,CLR,,0.00,WeatherDisplay:10.37,2013-02-04 11:13:00,
2013-02-04 06:18:00,55.4,35.5,30.12,West,270,4.6,4.6,47,0.00,CLR,,0.00,WeatherDisplay:10.37,2013-02-04 11:18:00,
2013-02-04 06:23:00,55.4,35.5,30.12,West,270,3.6,3.6,47,0.00,CLR,,0.00,WeatherDisplay:10.37,2013-02-04 11:23:00,
2013-02-04 06:28:00,55.2,35.9,30.12,WNW,292,4.6,4.6,48,0.00,CLR,,0.00,WeatherDisplay:10.37,2013-02-04 11:28:00,
2013-02-04 06:33:00,55.2,35.9,30.15,NW,315,6.0,6.0,48,0.00,CLR,,0.00,WeatherDisplay:10.37,2013-02-04 11:33:00,
2013-02-04 06:38:00,55.0,35.7,30.15,NW,315,4.6,4.6,48,0.00,CLR,,0.00,WeatherDisplay:10.37,2013-02-04 11:38:00,
2013-02-04 06:43:00,55.0,35.7,30.15,NW,315,5.8,5.8,48,0.00,CLR,,0.00,WeatherDisplay:10.37,2013-02-04 11:43:00,
2013-02-04 06:48:00,54.9,35.5,30.15,NW,315,4.9,4.9,48,0.00,CLR,,0.00,WeatherDisplay:10.37,2013-02-04 11:48:00,
2013-02-04 06:53:00,54.9,35.5,30.15,WNW,292,4.7,4.7,48,0.00,CLR,,0.00,WeatherDisplay:10.37,2013-02-04 11:53:00,
2013-02-04 06:59:00,54.5,35.7,30.15,WNW,292,5.8,5.8,49,0.00,CLR,,0.00,WeatherDisplay:10.37,2013-02-04 11:59:00,
2013-02-04 07:04:00,54.3,35.5,30.12,NW,315,4.6,4.6,49,0.00,CLR,,0.00,WeatherDisplay:10.37,2013-02-04 12:04:00,
2013-02-04 07:09:00,54.5,36.2,30.12,WNW,292,4.9,4.9,50,0.00,CLR,,0.00,WeatherDisplay:10.37,2013-02-04 12:09:00,
2013-02-04 07:14:00,54.1,35.9,30.12,NW,315,5.8,5.8,50,0.00,CLR,,0.00,WeatherDisplay:10.37,2013-02-04 12:14:00,
2013-02-04 07:19:00,54.1,36.4,30.15,NW,315,4.6,4.6,51,0.00,CLR,,0.00,WeatherDisplay:10.37,2013-02-04 12:19:00,
2013-02-04 07:24:00,54.1,36.4,30.15,NW,315,5.8,5.8,51,0.00,CLR,,0.00,WeatherDisplay:10.37,2013-02-04 12:24:00,
2013-02-04 07:29:00,54.1,36.4,30.15,West,270,6.9,6.9,51,0.00,CLR,,0.00,WeatherDisplay:10.37,2013-02-04 12:29:00,
2013-02-04 07:35:00,54.0,36.7,30.15,West,270,5.8,5.8,52,0.00,CLR,,0.00,WeatherDisplay:10.37,2013-02-04 12:35:00,
2013-02-04 07:40:00,54.0,36.7,30.15,West,270,6.4,6.4,52,0.00,CLR,,0.00,WeatherDisplay:10.37,2013-02-04 12:40:00,
2013-02-04 07:45:00,54.0,36.7,30.15,West,270,4.6,4.6,52,0.00,CLR,,0.00,WeatherDisplay:10.37,2013-02-04 12:45:00,
2013-02-04 07:50:00,54.1,36.9,30.15,WNW,292,4.6,4.6,52,0.00,CLR,,0.00,WeatherDisplay:10.37,2013-02-04 12:50:00,
2013-02-04 07:55:00,54.3,37.1,30.15,NW,315,5.8,5.8,52,0.00,CLR,,0.00,WeatherDisplay:10.37,2013-02-04 12:55:00,
2013-02-04 08:00:00,54.3,37.1,30.15,West,270,5.8,5.8,52,0.00,CLR,,0.00,WeatherDisplay:10.37,2013-02-04 13:00:00,
2013-02-04 08:05:00,54.5,37.2,30.15,West,270,6.0,6.0,52,0.00,CLR,,0.00,WeatherDisplay:10.37,2013-02-04 13:05:00,
2013-02-04 08:10:00,54.5,37.2,30.15,NW,315,9.2,9.2,52,0.00,CLR,,0.00,WeatherDisplay:10.37,2013-02-04 13:10:00,
2013-02-04 08:15:00,54.9,37.6,30.15,WNW,292,6.9,6.9,52,0.00,CLR,,0.00,WeatherDisplay:10.37,2013-02-04 13:15:00,
2013-02-04 08:20:00,54.9,37.6,30.15,NW,315,6.4,6.4,52,0.00,CLR,,0.00,WeatherDisplay:10.37,2013-02-04 13:20:00,
2013-02-04 08:26:00,55.2,37.9,30.15,WNW,292,5.9,5.9,52,0.00,CLR,,0.00,WeatherDisplay:10.37,2013-02-04 13:26:00,
2013-02-04 08:31:00,55.2,37.9,30.15,NW,308,3.0,6.0,52,0.00,CLR,,0.00,WeatherDisplay:10.37,2013-02-04 13:31:00,
2013-02-04 08:36:00,55.9,38.1,30.15,WNW,292,5.8,5.8,51,0.00,CLR,,0.00,WeatherDisplay:10.37,2013-02-04 13:36:00,
2013-02-04 08:41:00,56.1,37.7,30.15,NW,315,5.8,5.8,50,0.00,CLR,,0.00,WeatherDisplay:10.37,2013-02-04 13:41:00,
2013-02-04 08:46:00,56.5,38.1,30.15,NW,315,5.9,5.9,50,0.00,CLR,,0.00,WeatherDisplay:10.37,2013-02-04 13:46:00,
2013-02-04 08:51:00,56.8,38.4,30.15,NW,315,6.9,6.9,50,0.00,CLR,,0.00,WeatherDisplay:10.37,2013-02-04 13:51:00,
2013-02-04 08:56:00,57.2,38.2,30.15,NW,315,5.8,5.8,49,0.00,CLR,,0.00,WeatherDisplay:10.37,2013-02-04 13:56:00,
2013-02-04 09:02:00,57.6,38.5,30.15,West,270,5.8,5.8,49,0.00,CLR,,0.00,WeatherDisplay:10.37,2013-02-04 14:02:00,
2013-02-04 09:07:00,58.1,39.0,30.15,West,270,4.6,4.6,49,0.00,CLR,,0.00,WeatherDisplay:10.37,2013-02-04 14:07:00,
2013-02-04 09:12:00,58.3,38.7,30.15,SW,225,5.8,5.8,48,0.00,CLR,,0.00,WeatherDisplay:10.37,2013-02-04 14:12:00,
2013-02-04 09:17:00,58.5,38.8,30.15,WSW,248,5.4,5.4,48,0.00,CLR,,0.00,WeatherDisplay:10.37,2013-02-04 14:17:00,
2013-02-04 09:22:00,58.8,39.2,30.15,NW,315,3.5,3.5,48,0.00,CLR,,0.00,WeatherDisplay:10.37,2013-02-04 14:22:00,
2013-02-04 09:27:00,59.2,38.9,30.15,NW,315,3.5,3.5,47,0.00,CLR,,0.00,WeatherDisplay:10.37,2013-02-04 14:27:00,
2013-02-04 09:32:00,59.4,38.6,30.15,West,270,1.2,0.0,46,0.00,CLR,,0.00,WeatherDisplay:10.37,2013-02-04 14:32:00,
2013-02-04 09:37:00,59.5,38.7,30.15,West,270,2.9,2.9,46,0.00,CLR,,0.00,WeatherDisplay:10.37,2013-02-04 14:37:00,
2013-02-04 09:42:00,59.9,39.1,30.15,West,270,3.1,3.1,46,0.00,CLR,,0.00,WeatherDisplay:10.37,2013-02-04 14:42:00,
2013-02-04 09:47:00,60.3,39.4,30.15,WNW,292,0.0,0.0,46,0.00,CLR,,0.00,WeatherDisplay:10.37,2013-02-04 14:47:00,
2013-02-04 09:52:00,60.6,39.1,30.15,WNW,292,0.0,0.0,45,0.00,CLR,,0.00,WeatherDisplay:10.37,2013-02-04 14:52:00,
2013-02-04 09:57:00,61.2,39.1,30.15,NW,315,3.5,3.5,44,0.00,CLR,,0.00,WeatherDisplay:10.37,2013-02-04 14:57:00,
2013-02-04 10:03:00,61.3,39.2,30.15,NW,315,3.5,3.5,44,0.00,CLR,,0.00,WeatherDisplay:10.37,2013-02-04 15:03:00,
2013-02-04 10:08:00,61.9,39.1,30.15,NW,315,2.3,2.3,43,0.00,CLR,,0.00,WeatherDisplay:10.37,2013-02-04 15:08:00,
2013-02-04 10:13:00,61.9,39.1,30.15,WNW,292,2.3,2.3,43,0.00,CLR,,0.00,WeatherDisplay:10.37,2013-02-04 15:13:00,
2013-02-04 10:18:00,62.6,39.2,30.18,West,270,0.0,0.0,42,0.00,CLR,,0.00,WeatherDisplay:10.37,2013-02-04 15:18:00,
2013-02-04 10:23:00,62.8,38.7,30.18,West,270,0.0,0.0,41,0.00,CLR,,0.00,WeatherDisplay:10.37,2013-02-04 15:23:00,
2013-02-04 10:28:00,63.1,39.7,30.18,NW,315,0.0,0.0,42,0.00,CLR,,0.00,WeatherDisplay:10.37,2013-02-04 15:28:00,
2013-02-04 10:33:00,63.3,39.2,30.15,SW,225,0.0,0.0,41,0.00,CLR,,0.00,WeatherDisplay:10.37,2013-02-04 15:33:00,
2013-02-04 10:39:00,63.5,39.4,30.15,South,180,0.0,0.0,41,0.00,CLR,,0.00,WeatherDisplay:10.37,2013-02-04 15:39:00,
2013-02-04 10:44:00,63.5,41.2,30.15,NE,45,0.0,0.0,44,0.00,CLR,,0.00,WeatherDisplay:10.37,2013-02-04 15:44:00,
2013-02-04 10:49:00,63.7,40.1,30.15,East,90,1.2,0.0,42,0.00,CLR,,0.00,WeatherDisplay:10.37,2013-02-04 15:49:00,
2013-02-04 10:54:00,64.4,40.2,30.15,NW,315,2.3,2.3,41,0.00,CLR,,0.00,WeatherDisplay:10.37,2013-02-04 15:54:00,
2013-02-04 10:59:00,65.1,40.8,30.15,South,180,2.3,2.3,41,0.00,CLR,,0.00,WeatherDisplay:10.37,2013-02-04 15:59:00,
2013-02-04 11:04:00,65.5,42.4,30.12,East,90,3.3,3.3,43,0.00,CLR,,0.00,WeatherDisplay:10.37,2013-02-04 16:04:00,
2013-02-04 11:09:00,66.0,41.6,30.12,SSE,158,3.5,3.5,41,0.00,CLR,,0.00,WeatherDisplay:10.37,2013-02-04 16:09:00,
2013-02-04 11:14:00,66.0,42.3,30.12,NE,45,1.2,0.0,42,0.00,CLR,,0.00,WeatherDisplay:10.37,2013-02-04 16:14:00,
2013-02-04 11:20:00,66.0,42.3,30.12,SSE,158,3.8,3.8,42,0.00,CLR,,0.00,WeatherDisplay:10.37,2013-02-04 16:20:00,
2013-02-04 11:25:00,66.9,42.4,30.12,East,90,5.8,5.8,41,0.00,CLR,,0.00,WeatherDisplay:10.37,2013-02-04 16:25:00,
2013-02-04 11:30:00,67.5,42.3,30.12,SE,135,3.5,3.5,40,0.00,CLR,,0.00,WeatherDisplay:10.37,2013-02-04 16:30:00,
2013-02-04 11:35:00,67.8,41.3,30.15,SE,135,3.5,3.5,38,0.00,CLR,,0.00,WeatherDisplay:10.37,2013-02-04 16:35:00,
2013-02-04 11:40:00,67.5,41.7,30.15,SE,142,2.0,5.0,39,0.00,CLR,,0.00,WeatherDisplay:10.37,2013-02-04 16:40:00,
2013-02-04 11:45:00,67.6,43.7,30.15,SE,133,3.0,6.0,42,0.00,CLR,,0.00,WeatherDisplay:10.37,2013-02-04 16:45:00,
2013-02-04 11:51:00,68.0,43.4,30.15,East,90,5.8,5.8,41,0.00,CLR,,0.00,WeatherDisplay:10.37,2013-02-04 16:51:00,
2013-02-04 11:56:00,68.4,44.4,30.15,East,90,3.5,3.5,42,0.00,CLR,,0.00,WeatherDisplay:10.37,2013-02-04 16:56:00,
2013-02-04 12:01:00,68.5,43.9,30.15,East,90,4.7,4.7,41,0.00,CLR,,0.00,WeatherDisplay:10.37,2013-02-04 17:01:00,
2013-02-04 12:06:00,69.1,43.1,30.15,South,180,4.6,4.6,39,0.00,CLR,,0.00,WeatherDisplay:10.37,2013-02-04 17:06:00,
2013-02-04 12:11:00,69.1,43.7,30.15,ESE,112,3.8,3.8,40,0.00,CLR,,0.00,WeatherDisplay:10.37,2013-02-04 17:11:00,
2013-02-04 12:16:00,69.1,43.7,30.15,East,90,4.6,4.6,40,0.00,CLR,,0.00,WeatherDisplay:10.37,2013-02-04 17:16:00,
2013-02-04 12:21:00,69.3,45.2,30.15,SSE,158,6.4,6.4,42,0.00,CLR,,0.00,WeatherDisplay:10.37,2013-02-04 17:21:00,
2013-02-04 12:26:00,69.3,45.2,30.15,East,90,5.8,5.8,42,0.00,CLR,,0.00,WeatherDisplay:10.37,2013-02-04 17:26:00,
2013-02-04 12:32:00,69.6,46.1,30.12,East,90,5.8,5.8,43,0.00,CLR,,0.00,WeatherDisplay:10.37,2013-02-04 17:32:00,
2013-02-04 12:37:00,69.8,46.3,30.12,ESE,112,4.6,4.6,43,0.00,CLR,,0.00,WeatherDisplay:10.37,2013-02-04 17:37:00,
2013-02-04 12:42:00,70.0,44.5,30.12,SE,135,4.6,4.6,40,0.00,CLR,,0.00,WeatherDisplay:10.37,2013-02-04 17:42:00,
2013-02-04 12:47:00,70.2,44.7,30.09,East,90,2.3,0.0,40,0.00,CLR,,0.00,WeatherDisplay:10.37,2013-02-04 17:47:00,
2013-02-04 12:52:00,70.5,45.0,30.09,SE,135,4.9,4.9,40,0.00,CLR,,0.00,WeatherDisplay:10.37,2013-02-04 17:52:00,
2013-02-04 12:57:00,70.5,44.4,30.09,South,180,3.5,3.5,39,0.00,CLR,,0.00,WeatherDisplay:10.37,2013-02-04 17:57:00,
2013-02-04 13:02:00,70.9,46.0,30.09,East,90,4.3,4.3,41,0.00,CLR,,0.00,WeatherDisplay:10.37,2013-02-04 18:02:00,
2013-02-04 13:07:00,71.1,45.5,30.09,SSE,158,3.6,3.6,40,0.00,CLR,,0.00,WeatherDisplay:10.37,2013-02-04 18:07:00,
2013-02-04 13:12:00,71.1,46.8,30.09,East,90,3.8,3.8,42,0.00,CLR,,0.00,WeatherDisplay:10.37,2013-02-04 18:12:00,
2013-02-04 13:17:00,71.2,45.7,30.09,NE,45,4.6,4.6,40,0.00,CLR,,0.00,WeatherDisplay:10.37,2013-02-04 18:17:00,
2013-02-04 13:23:00,71.4,46.5,30.09,East,90,3.5,3.5,41,0.00,CLR,,0.00,WeatherDisplay:10.37,2013-02-04 18:23:00,
2013-02-04 13:28:00,71.8,46.2,30.09,ESE,112,5.8,5.8,40,0.00,CLR,,0.00,WeatherDisplay:10.37,2013-02-04 18:28:00,
2013-02-04 13:33:00,71.6,46.6,30.09,SE,135,3.5,3.5,41,0.00,CLR,,0.00,WeatherDisplay:10.37,2013-02-04 18:33:00,
2013-02-04 13:38:00,71.8,46.8,30.09,South,180,4.6,4.6,41,0.00,CLR,,0.00,WeatherDisplay:10.37,2013-02-04 18:38:00,
2013-02-04 13:43:00,72.0,45.0,30.09,SSW,202,5.8,5.8,38,0.00,CLR,,0.00,WeatherDisplay:10.37,2013-02-04 18:43:00,
2013-02-04 13:48:00,72.0,45.6,30.09,ESE,112,3.5,3.5,39,0.00,CLR,,0.00,WeatherDisplay:10.37,2013-02-04 18:48:00,
2013-02-04 13:53:00,72.1,47.8,30.09,ESE,112,4.9,4.9,42,0.00,CLR,,0.00,WeatherDisplay:10.37,2013-02-04 18:53:00,
2013-02-04 13:58:00,72.1,46.5,30.09,SE,135,5.8,5.8,40,0.00,CLR,,0.00,WeatherDisplay:10.37,2013-02-04 18:58:00,
2013-02-04 14:03:00,72.5,47.5,30.09,West,270,4.6,4.6,41,0.00,CLR,,0.00,WeatherDisplay:10.37,2013-02-04 19:03:00,
2013-02-04 14:08:00,72.5,47.5,30.09,South,180,6.0,6.0,41,0.00,CLR,,0.00,WeatherDisplay:10.37,2013-02-04 19:08:00,
2013-02-04 14:13:00,72.7,48.3,30.09,SE,135,5.8,5.8,42,0.00,CLR,,0.00,WeatherDisplay:10.37,2013-02-04 19:13:00,
2013-02-04 14:19:00,72.7,48.3,30.09,East,90,5.8,5.8,42,0.00,CLR,,0.00,WeatherDisplay:10.37,2013-02-04 19:19:00,
2013-02-04 14:24:00,72.7,48.3,30.09,South,180,5.8,5.8,42,0.00,CLR,,0.00,WeatherDisplay:10.37,2013-02-04 19:24:00,
2013-02-04 14:29:00,72.9,48.4,30.09,NNE,22,6.9,6.9,42,0.00,CLR,,0.00,WeatherDisplay:10.37,2013-02-04 19:29:00,
2013-02-04 14:34:00,72.9,48.4,30.06,SE,135,4.6,4.6,42,0.00,CLR,,0.00,WeatherDisplay:10.37,2013-02-04 19:34:00,
2013-02-04 14:39:00,73.2,49.4,30.06,South,180,9.2,9.2,43,0.00,CLR,,0.00,WeatherDisplay:10.37,2013-02-04 19:39:00,
2013-02-04 14:44:00,73.2,48.7,30.06,East,90,6.9,6.9,42,0.00,CLR,,0.00,WeatherDisplay:10.37,2013-02-04 19:44:00,
2013-02-04 14:50:00,73.2,49.4,30.09,SSE,158,8.1,8.1,43,0.00,CLR,,0.00,WeatherDisplay:10.37,2013-02-04 19:50:00,
2013-02-04 14:55:00,73.3,48.8,30.09,SE,138,5.0,9.0,42,0.00,CLR,,0.00,WeatherDisplay:10.37,2013-02-04 19:55:00,
2013-02-04 15:00:00,73.2,49.4,30.09,South,180,6.9,6.9,43,0.00,CLR,,0.00,WeatherDisplay:10.37,2013-02-04 20:00:00,
2013-02-04 15:05:00,73.4,49.5,30.06,ESE,112,6.9,6.9,43,0.00,CLR,,0.00,WeatherDisplay:10.37,2013-02-04 20:05:00,
2013-02-04 15:10:00,73.2,49.4,30.06,SE,135,5.8,5.8,43,0.00,CLR,,0.00,WeatherDisplay:10.37,2013-02-04 20:10:00,
2013-02-04 15:15:00,73.6,49.7,30.06,SE,135,6.9,6.9,43,0.00,CLR,,0.00,WeatherDisplay:10.37,2013-02-04 20:15:00,
2013-02-04 15:21:00,73.6,49.7,30.06,East,90,5.8,5.8,43,0.00,CLR,,0.00,WeatherDisplay:10.37,2013-02-04 20:21:00,
2013-02-04 15:26:00,73.4,49.5,30.06,SE,135,5.8,5.8,43,0.00,CLR,,0.00,WeatherDisplay:10.37,2013-02-04 20:26:00,
2013-02-04 15:31:00,73.8,50.5,30.06,South,180,8.1,8.1,44,0.00,CLR,,0.00,WeatherDisplay:10.37,2013-02-04 20:31:00,
2013-02-04 15:36:00,73.8,50.5,30.06,SSE,158,4.6,4.6,44,0.00,CLR,,0.00,WeatherDisplay:10.37,2013-02-04 20:36:00,
2013-02-04 15:41:00,74.1,50.8,30.06,ESE,112,6.0,6.0,44,0.00,CLR,,0.00,WeatherDisplay:10.37,2013-02-04 20:41:00,
2013-02-04 15:46:00,74.3,51.0,30.06,SE,135,6.9,6.9,44,0.00,CLR,,0.00,WeatherDisplay:10.37,2013-02-04 20:46:00,
2013-02-04 15:52:00,74.3,51.6,30.06,SE,135,4.6,4.6,45,0.00,CLR,,0.00,WeatherDisplay:10.37,2013-02-04 20:52:00,
2013-02-04 15:57:00,74.5,51.7,30.06,SE,135,6.0,6.0,45,0.00,CLR,,0.00,WeatherDisplay:10.37,2013-02-04 20:57:00,
2013-02-04 16:02:00,74.5,51.7,30.06,ESE,112,4.6,4.6,45,0.00,CLR,,0.00,WeatherDisplay:10.37,2013-02-04 21:02:00,
2013-02-04 16:07:00,74.7,51.3,30.06,SE,135,5.9,5.9,44,0.00,CLR,,0.00,WeatherDisplay:10.37,2013-02-04 21:07:00,
2013-02-04 16:12:00,74.3,51.0,30.06,SSE,158,7.4,7.4,44,0.00,CLR,,0.00,WeatherDisplay:10.37,2013-02-04 21:12:00,
2013-02-04 16:17:00,74.5,51.7,30.09,East,90,5.8,5.8,45,0.00,CLR,,0.00,WeatherDisplay:10.37,2013-02-04 21:17:00,
2013-02-04 16:23:00,74.5,51.1,30.09,South,180,5.9,5.9,44,0.00,CLR,,0.00,WeatherDisplay:10.37,2013-02-04 21:23:00,
2013-02-04 16:28:00,74.7,50.7,30.09,SSE,158,8.1,8.1,43,0.00,CLR,,0.00,WeatherDisplay:10.37,2013-02-04 21:28:00,
2013-02-04 16:33:00,74.8,52.1,30.09,NW,315,3.5,3.5,45,0.00,CLR,,0.00,WeatherDisplay:10.37,2013-02-04 21:33:00,
2013-02-04 16:38:00,75.0,52.2,30.09,SE,135,5.8,5.8,45,0.00,CLR,,0.00,WeatherDisplay:10.37,2013-02-04 21:38:00,
2013-02-04 16:44:00,74.8,51.5,30.09,South,180,4.6,4.6,44,0.00,CLR,,0.00,WeatherDisplay:10.37,2013-02-04 21:44:00,
2013-02-04 16:49:00,75.2,52.4,30.09,SSE,158,5.8,5.8,45,0.00,CLR,,0.00,WeatherDisplay:10.37,2013-02-04 21:49:00,
2013-02-04 16:54:00,75.2,51.8,30.09,South,180,5.8,5.8,44,0.00,CLR,,0.00,WeatherDisplay:10.37,2013-02-04 21:54:00,
2013-02-04 16:59:00,75.2,52.4,30.09,SSE,158,6.9,6.9,45,0.00,CLR,,0.00,WeatherDisplay:10.37,2013-02-04 21:59:00,
2013-02-04 17:04:00,75.0,52.2,30.09,SSE,158,3.5,3.5,45,0.00,CLR,,0.00,WeatherDisplay:10.37,2013-02-04 22:04:00,
2013-02-04 17:09:00,75.0,51.6,30.09,East,90,5.9,5.9,44,0.00,CLR,,0.00,WeatherDisplay:10.37,2013-02-04 22:09:00,
2013-02-04 17:14:00,74.3,51.0,30.09,South,180,4.0,4.0,44,0.00,CLR,,0.00,WeatherDisplay:10.37,2013-02-04 22:14:00,
2013-02-04 17:20:00,74.3,51.0,30.09,South,180,3.3,3.3,44,0.00,CLR,,0.00,WeatherDisplay:10.37,2013-02-04 22:20:00,
2013-02-04 17:25:00,74.3,51.0,30.09,South,180,3.5,3.5,44,0.00,CLR,,0.00,WeatherDisplay:10.37,2013-02-04 22:25:00,
2013-02-04 17:30:00,73.9,50.6,30.09,SW,225,2.3,3.3,44,0.00,CLR,,0.00,WeatherDisplay:10.37,2013-02-04 22:30:00,
2013-02-04 17:35:00,73.9,51.3,30.09,WSW,248,2.3,2.9,45,0.00,CLR,,0.00,WeatherDisplay:10.37,2013-02-04 22:35:00,
2013-02-04 17:40:00,73.9,51.3,30.09,SSE,158,5.6,5.6,45,0.00,CLR,,0.00,WeatherDisplay:10.37,2013-02-04 22:40:00,
2013-02-04 17:45:00,73.4,50.8,30.09,SSE,166,3.0,6.0,45,0.00,CLR,,0.00,WeatherDisplay:10.37,2013-02-04 22:45:00,
2013-02-04 17:50:00,73.4,50.8,30.06,SE,135,3.6,3.6,45,0.00,CLR,,0.00,WeatherDisplay:10.37,2013-02-04 22:50:00,
2013-02-04 17:56:00,72.7,50.7,30.06,SSW,202,5.8,5.8,46,0.00,CLR,,0.00,WeatherDisplay:10.37,2013-02-04 22:56:00,
2013-02-04 18:01:00,72.5,50.5,30.09,SSE,158,2.3,2.3,46,0.00,CLR,,0.00,WeatherDisplay:10.37,2013-02-04 23:01:00,
2013-02-04 18:06:00,72.0,50.0,30.09,South,180,4.6,4.6,46,0.00,CLR,,0.00,WeatherDisplay:10.37,2013-02-04 23:06:00,
2013-02-04 18:11:00,72.0,50.0,30.09,South,180,5.8,5.8,46,0.00,CLR,,0.00,WeatherDisplay:10.37,2013-02-04 23:11:00,
2013-02-04 18:16:00,71.6,49.1,30.09,SSE,158,5.8,5.8,45,0.00,CLR,,0.00,WeatherDisplay:10.37,2013-02-04 23:16:00,
2013-02-04 18:21:00,71.4,49.6,30.09,South,180,2.3,0.0,46,0.00,CLR,,0.00,WeatherDisplay:10.37,2013-02-04 23:21:00,
2013-02-04 18:26:00,71.1,49.2,30.09,South,180,3.5,3.5,46,0.00,CLR,,0.00,WeatherDisplay:10.37,2013-02-04 23:26:00,
2013-02-04 18:31:00,71.1,49.8,30.09,South,180,1.2,0.0,47,0.00,CLR,,0.00,WeatherDisplay:10.37,2013-02-04 23:31:00,
2013-02-04 18:37:00,71.2,50.0,30.09,South,180,4.6,4.6,47,0.00,CLR,,0.00,WeatherDisplay:10.37,2013-02-04 23:37:00,
2013-02-04 18:42:00,71.1,49.8,30.09,SSE,158,1.6,1.6,47,0.00,CLR,,0.00,WeatherDisplay:10.37,2013-02-04 23:42:00,
2013-02-04 18:47:00,71.1,49.8,30.09,SE,135,3.8,0.0,47,0.00,CLR,,0.00,WeatherDisplay:10.37,2013-02-04 23:47:00,
2013-02-04 18:52:00,71.1,49.8,30.09,SSE,158,3.8,3.8,47,0.00,CLR,,0.00,WeatherDisplay:10.37,2013-02-04 23:52:00,
2013-02-04 18:57:00,70.9,49.6,30.09,SSW,202,3.5,3.5,47,0.00,CLR,,0.00,WeatherDisplay:10.37,2013-02-04 23:57:00,
2013-02-04 19:02:00,70.9,49.6,30.09,South,180,3.8,3.8,47,0.00,CLR,,0.00,WeatherDisplay:10.37,2013-02-05 00:02:00,
2013-02-04 19:07:00,70.9,49.6,30.09,South,180,3.5,0.0,47,0.00,CLR,,0.00,WeatherDisplay:10.37,2013-02-05 00:07:00,
2013-02-04 19:13:00,70.5,49.9,30.09,South,180,3.5,3.5,48,0.00,CLR,,0.00,WeatherDisplay:10.37,2013-02-05 00:13:00,
2013-02-04 19:18:00,70.5,49.3,30.09,South,180,2.3,2.3,47,0.00,CLR,,0.00,WeatherDisplay:10.37,2013-02-05 00:18:00,
2013-02-04 19:23:00,70.3,49.7,30.09,SW,225,6.2,6.2,48,0.00,CLR,,0.00,WeatherDisplay:10.37,2013-02-05 00:23:00,
2013-02-04 19:28:00,70.5,49.9,30.09,NW,315,4.3,4.3,48,0.00,CLR,,0.00,WeatherDisplay:10.37,2013-02-05 00:28:00,
2013-02-04 19:33:00,70.5,49.9,30.09,South,180,0.0,0.0,48,0.00,CLR,,0.00,WeatherDisplay:10.37,2013-02-05 00:33:00,
2013-02-04 19:38:00,70.2,49.5,30.09,SSE,158,3.5,3.5,48,0.00,CLR,,0.00,WeatherDisplay:10.37,2013-02-05 00:38:00,
2013-02-04 19:44:00,70.2,49.5,30.09,South,180,3.5,3.5,48,0.00,CLR,,0.00,WeatherDisplay:10.37,2013-02-05 00:44:00,
2013-02-04 19:49:00,70.2,49.5,30.09,South,180,5.8,5.8,48,0.00,CLR,,0.00,WeatherDisplay:10.37,2013-02-05 00:49:00,
2013-02-04 19:54:00,70.2,49.5,30.09,South,180,3.5,0.0,48,0.00,CLR,,0.00,WeatherDisplay:10.37,2013-02-05 00:54:00,
2013-02-04 19:59:00,70.2,49.5,30.09,South,180,1.2,0.0,48,0.00,CLR,,0.00,WeatherDisplay:10.37,2013-02-05 00:59:00,
2013-02-04 20:04:00,69.8,49.2,30.09,SW,225,6.4,6.4,48,0.00,CLR,,0.00,WeatherDisplay:10.37,2013-02-05 01:04:00,
2013-02-04 20:09:00,69.8,48.7,30.09,South,180,3.5,3.5,47,0.00,CLR,,0.00,WeatherDisplay:10.37,2013-02-05 01:09:00,
2013-02-04 20:14:00,69.8,49.2,30.09,SSW,202,2.3,2.3,48,0.00,CLR,,0.00,WeatherDisplay:10.37,2013-02-05 01:14:00,
2013-02-04 20:19:00,69.6,49.1,30.12,South,180,2.2,0.0,48,0.00,CLR,,0.00,WeatherDisplay:10.37,2013-02-05 01:19:00,
2013-02-04 20:24:00,69.8,49.2,30.12,South,180,3.5,3.5,48,0.00,CLR,,0.00,WeatherDisplay:10.37,2013-02-05 01:24:00,
2013-02-04 20:29:00,69.6,49.1,30.12,SSW,202,0.0,0.0,48,0.00,CLR,,0.00,WeatherDisplay:10.37,2013-02-05 01:29:00,
2013-02-04 20:34:00,69.6,49.1,30.09,SSE,158,4.6,4.6,48,0.00,CLR,,0.00,WeatherDisplay:10.37,2013-02-05 01:34:00,
2013-02-04 20:40:00,69.6,49.1,30.09,South,180,3.1,0.0,48,0.00,CLR,,0.00,WeatherDisplay:10.37,2013-02-05 01:40:00,
2013-02-04 20:45:00,69.4,48.9,30.09,South,180,5.8,5.8,48,0.00,CLR,,0.00,WeatherDisplay:10.37,2013-02-05 01:45:00,
2013-02-04 20:50:00,69.6,49.1,30.09,SE,135,4.0,4.0,48,0.00,CLR,,0.00,WeatherDisplay:10.37,2013-02-05 01:50:00,
2013-02-04 20:55:00,69.6,49.1,30.09,ENE,68,5.8,5.8,48,0.00,CLR,,0.00,WeatherDisplay:10.37,2013-02-05 01:55:00,
2013-02-04 21:00:00,69.4,48.9,30.09,ESE,112,3.5,3.5,48,0.00,CLR,,0.00,WeatherDisplay:10.37,2013-02-05 02:00:00,
2013-02-04 21:05:00,69.4,48.9,30.09,SW,225,4.6,4.6,48,0.00,CLR,,0.00,WeatherDisplay:10.37,2013-02-05 02:05:00,
2013-02-04 21:10:00,69.4,48.9,30.09,South,180,3.5,3.5,48,0.00,CLR,,0.00,WeatherDisplay:10.37,2013-02-05 02:10:00,
2013-02-04 21:15:00,69.4,48.9,30.09,SSE,163,0.0,4.0,48,0.00,CLR,,0.00,WeatherDisplay:10.37,2013-02-05 02:15:00,
2013-02-04 21:20:00,69.3,48.7,30.09,East,90,3.8,3.8,48,0.00,CLR,,0.00,WeatherDisplay:10.37,2013-02-05 02:20:00,
2013-02-04 21:26:00,69.3,48.7,30.09,WSW,248,3.5,3.5,48,0.00,CLR,,0.00,WeatherDisplay:10.37,2013-02-05 02:26:00,
2013-02-04 21:31:00,69.3,48.7,30.09,SSE,165,1.0,4.0,48,0.00,CLR,,0.00,WeatherDisplay:10.37,2013-02-05 02:31:00,
2013-02-04 21:36:00,69.3,48.7,30.09,East,90,4.6,4.6,48,0.00,CLR,,0.00,WeatherDisplay:10.37,2013-02-05 02:36:00,
2013-02-04 21:41:00,69.3,48.7,30.09,ESE,112,6.2,6.2,48,0.00,CLR,,0.00,WeatherDisplay:10.37,2013-02-05 02:41:00,
2013-02-04 21:46:00,69.3,48.7,30.06,SSE,158,4.6,4.6,48,0.00,CLR,,0.00,WeatherDisplay:10.37,2013-02-05 02:46:00,
2013-02-04 21:51:00,69.3,48.7,30.06,South,180,3.5,0.0,48,0.00,CLR,,0.00,WeatherDisplay:10.37,2013-02-05 02:51:00,
2013-02-04 21:56:00,69.3,48.7,30.06,South,180,3.5,3.5,48,0.00,CLR,,0.00,WeatherDisplay:10.37,2013-02-05 02:56:00,
2013-02-04 22:01:00,69.1,48.6,30.09,South,180,5.9,5.9,48,0.00,CLR,,0.00,WeatherDisplay:10.37,2013-02-05 03:01:00,
2013-02-04 22:07:00,69.1,48.0,30.09,SE,135,2.3,2.3,47,0.00,CLR,,0.00,WeatherDisplay:10.37,2013-02-05 03:07:00,
2013-02-04 22:12:00,68.9,47.8,30.09,SW,225,2.3,2.3,47,0.00,CLR,,0.00,WeatherDisplay:10.37,2013-02-05 03:12:00,
2013-02-04 22:17:00,68.9,47.8,30.06,South,180,4.6,4.6,47,0.00,CLR,,0.00,WeatherDisplay:10.37,2013-02-05 03:17:00,
2013-02-04 22:22:00,69.1,48.6,30.06,SSE,158,5.8,5.8,48,0.00,CLR,,0.00,WeatherDisplay:10.37,2013-02-05 03:22:00,
2013-02-04 22:27:00,68.9,47.8,30.06,East,90,0.0,0.0,47,0.00,CLR,,0.00,WeatherDisplay:10.37,2013-02-05 03:27:00,
2013-02-04 22:32:00,68.9,47.8,30.09,South,180,4.9,4.9,47,0.00,CLR,,0.00,WeatherDisplay:10.37,2013-02-05 03:32:00,
2013-02-04 22:37:00,68.9,47.8,30.09,SSE,158,3.5,3.5,47,0.00,CLR,,0.00,WeatherDisplay:10.37,2013-02-05 03:37:00,
2013-02-04 22:43:00,68.7,47.7,30.09,SW,225,3.5,0.0,47,0.00,CLR,,0.00,WeatherDisplay:10.37,2013-02-05 03:43:00,
2013-02-04 22:48:00,68.9,47.8,30.09,SSE,158,2.3,3.1,47,0.00,CLR,,0.00,WeatherDisplay:10.37,2013-02-05 03:48:00,
2013-02-04 22:53:00,68.9,47.8,30.09,SE,135,4.6,4.6,47,0.00,CLR,,0.00,WeatherDisplay:10.37,2013-02-05 03:53:00,
2013-02-04 22:58:00,68.7,47.7,30.09,SW,225,4.6,4.6,47,0.00,CLR,,0.00,WeatherDisplay:10.37,2013-02-05 03:58:00,
2013-02-04 23:03:00,68.7,47.7,30.09,SSE,158,2.3,2.3,47,0.00,CLR,,0.00,WeatherDisplay:10.37,2013-02-05 04:03:00,
2013-02-04 23:08:00,68.7,47.7,30.09,SW,225,0.0,0.0,47,0.00,CLR,,0.00,WeatherDisplay:10.37,2013-02-05 04:08:00,
2013-02-04 23:13:00,68.5,47.5,30.09,SW,225,3.5,3.5,47,0.00,CLR,,0.00,WeatherDisplay:10.37,2013-02-05 04:13:00,
2013-02-04 23:19:00,68.5,47.5,30.09,SSW,202,0.0,0.0,47,0.00,CLR,,0.00,WeatherDisplay:10.37,2013-02-05 04:19:00,
2013-02-04 23:24:00,68.4,47.9,30.09,SSW,202,0.0,0.0,48,0.00,CLR,,0.00,WeatherDisplay:10.37,2013-02-05 04:24:00,
2013-02-04 23:29:00,67.8,48.0,30.09,SW,225,0.0,0.0,49,0.00,CLR,,0.00,WeatherDisplay:10.37,2013-02-05 04:29:00,
2013-02-04 23:34:00,67.6,48.3,30.09,WSW,248,2.3,0.0,50,0.00,CLR,,0.00,WeatherDisplay:10.37,2013-02-05 04:34:00,
2013-02-04 23:39:00,67.3,48.0,30.09,WSW,248,0.0,0.0,50,0.00,CLR,,0.00,WeatherDisplay:10.37,2013-02-05 04:39:00,
2013-02-04 23:44:00,67.1,47.8,30.09,SW,225,0.0,1.2,50,0.00,CLR,,0.00,WeatherDisplay:10.37,2013-02-05 04:44:00,
2013-02-04 23:49:00,66.7,47.5,30.09,West,270,0.0,0.0,50,0.00,CLR,,0.00,WeatherDisplay:10.37,2013-02-05 04:49:00,
2013-02-04 23:55:00,66.6,47.9,30.09,West,270,0.0,0.0,51,0.00,CLR,,0.00,WeatherDisplay:10.37,2013-02-05 04:55:00,